Back to catalog

DELTA 1 DEB

AliveSSO
NORAD 12230·DEBRIS·🇺🇸 United States

Launched Mar 5, 1978 from Vandenberg Space Force Base

Loading…

Next Passes (next 24 hours)

TLE

FreshSource: Space-Track

Epoch: Sep 13, 2026, 23:13 UTC

1 12230U 78026BX  26256.96746053  .00009594  00000-0  63541-3 0  9991
2 12230  98.0209 260.8628 0032870 133.8363 226.5589 15.07095057394380

Track DELTA 1 DEB in real time with AllMySat

Download on the App Store